Time,TemperatureF,DewpointF,PressureIn,WindDirection,WindDirectionDegrees,WindSpeedMPH,WindSpeedGustMPH,Humidity,HourlyPrecipIn,Conditions,Clouds,dailyrainin,SoftwareType,DateUTC
2013-04-05 00:03:00,69.0,-99.9,29.95,West,268,7.0,9.0,-999,-99.99,,,-99.99,,2013-04-05 04:03:00,
2013-04-05 00:13:00,69.0,-99.9,29.95,West,266,8.0,11.0,-999,-99.99,,,-99.99,,2013-04-05 04:13:00,
2013-04-05 00:23:00,69.0,-99.9,29.95,WSW,254,7.0,9.0,-999,-99.99,,,-99.99,,2013-04-05 04:23:00,
2013-04-05 00:33:00,69.0,-99.9,29.95,West,261,8.0,9.0,-999,-99.99,,,-99.99,,2013-04-05 04:33:00,
2013-04-05 00:43:00,69.0,-99.9,29.95,WSW,256,6.0,8.0,-999,-99.99,,,-99.99,,2013-04-05 04:43:00,
2013-04-05 00:52:00,69.0,-99.9,29.94,WSW,252,6.0,7.0,-999,-99.99,,,-99.99,,2013-04-05 04:52:00,
2013-04-05 01:02:00,69.0,-99.9,29.95,WSW,253,4.0,5.0,-999,-99.99,,,-99.99,,2013-04-05 05:02:00,
2013-04-05 01:13:00,68.0,-99.9,29.95,West,261,2.0,3.0,-999,-99.99,,,-99.99,,2013-04-05 05:13:00,
2013-04-05 01:22:00,68.0,-99.9,29.95,West,276,1.0,2.0,-999,-99.99,,,-99.99,,2013-04-05 05:22:00,
2013-04-05 01:32:00,68.0,-99.9,29.94,East,97,-999.0,2.0,-999,-99.99,,,-99.99,,2013-04-05 05:32:00,
2013-04-05 01:42:00,68.0,-99.9,29.95,NNE,28,4.0,4.0,-999,-99.99,,,-99.99,,2013-04-05 05:42:00,
2013-04-05 01:53:00,64.0,-99.9,29.96,NE,36,10.0,13.0,-999,-99.99,,,-99.99,,2013-04-05 05:53:00,
2013-04-05 02:03:00,64.0,-99.9,29.96,NE,42,11.0,14.0,-999,-99.99,,,-99.99,,2013-04-05 06:03:00,
2013-04-05 02:12:00,64.0,-99.9,29.96,NE,42,11.0,14.0,-999,-99.99,,,-99.99,,2013-04-05 06:12:00,
2013-04-05 02:22:00,63.0,-99.9,29.95,ENE,60,12.0,13.0,-999,-99.99,,,-99.99,,2013-04-05 06:22:00,
2013-04-05 02:32:00,62.0,-99.9,29.94,ENE,70,13.0,14.0,-999,-99.99,,,-99.99,,2013-04-05 06:32:00,
2013-04-05 02:42:00,62.0,-99.9,29.94,ENE,72,11.0,13.0,-999,-99.99,,,-99.99,,2013-04-05 06:42:00,
2013-04-05 02:52:00,62.0,-99.9,29.94,ENE,69,12.0,13.0,-999,-99.99,,,-99.99,,2013-04-05 06:52:00,
2013-04-05 03:03:00,62.0,-99.9,29.94,ENE,70,12.0,13.0,-999,-99.99,,,-99.99,,2013-04-05 07:03:00,
2013-04-05 03:12:00,62.0,-99.9,29.93,ENE,72,10.0,12.0,-999,-99.99,,,-99.99,,2013-04-05 07:12:00,
2013-04-05 03:23:00,62.0,-99.9,29.93,ENE,74,11.0,13.0,-999,-99.99,,,-99.99,,2013-04-05 07:23:00,
2013-04-05 03:32:00,62.0,-99.9,29.93,ENE,68,10.0,12.0,-999,-99.99,,,-99.99,,2013-04-05 07:32:00,
2013-04-05 03:42:00,61.0,-99.9,29.91,ENE,77,10.0,12.0,-999,-99.99,,,-99.99,,2013-04-05 07:42:00,
2013-04-05 03:53:00,61.0,-99.9,29.91,ENE,60,10.0,13.0,-999,-99.99,,,-99.99,,2013-04-05 07:53:00,
2013-04-05 04:03:00,61.0,-99.9,29.91,NE,49,10.0,12.0,-999,-99.99,,,-99.99,,2013-04-05 08:03:00,
2013-04-05 04:13:00,61.0,-99.9,29.91,NE,34,10.0,12.0,-999,-99.99,,,-99.99,,2013-04-05 08:13:00,
2013-04-05 04:23:00,61.0,-99.9,29.90,NE,41,13.0,13.0,-999,-99.99,,,-99.99,,2013-04-05 08:23:00,
2013-04-05 04:33:00,61.0,-99.9,29.90,NNE,32,11.0,12.0,-999,-99.99,,,-99.99,,2013-04-05 08:33:00,
2013-04-05 04:43:00,61.0,-99.9,29.89,NNE,31,12.0,13.0,-999,-99.99,,,-99.99,,2013-04-05 08:43:00,
2013-04-05 04:52:00,61.0,-99.9,29.88,NNE,32,10.0,13.0,-999,-99.99,,,-99.99,,2013-04-05 08:52:00,
2013-04-05 05:02:00,60.0,-99.9,29.88,NE,40,10.0,13.0,-999,-99.99,,,-99.99,,2013-04-05 09:02:00,
2013-04-05 05:13:00,60.0,-99.9,29.87,NE,42,13.0,14.0,-999,-99.99,,,-99.99,,2013-04-05 09:13:00,
2013-04-05 05:22:00,60.0,-99.9,29.88,NNE,25,13.0,14.0,-999,-99.99,,,-99.99,,2013-04-05 09:22:00,
2013-04-05 05:33:00,60.0,-99.9,29.88,NNE,25,13.0,14.0,-999,-99.99,,,-99.99,,2013-04-05 09:33:00,
2013-04-05 05:43:00,60.0,-99.9,29.89,NNE,27,14.0,16.0,-999,-99.99,,,-99.99,,2013-04-05 09:43:00,
2013-04-05 05:53:00,60.0,-99.9,29.89,NE,34,12.0,16.0,-999,-99.99,,,-99.99,,2013-04-05 09:53:00,
2013-04-05 06:03:00,60.0,-99.9,29.88,NE,35,15.0,17.0,-999,-99.99,,,-99.99,,2013-04-05 10:03:00,
2013-04-05 06:13:00,60.0,-99.9,29.88,NNE,27,15.0,19.0,-999,-99.99,,,-99.99,,2013-04-05 10:13:00,
2013-04-05 06:23:00,59.0,-99.9,29.88,NNE,25,17.0,20.0,-999,-99.99,,,-99.99,,2013-04-05 10:23:00,
2013-04-05 06:33:00,59.0,-99.9,29.88,NNE,24,18.0,21.0,-999,-99.99,,,-99.99,,2013-04-05 10:33:00,
2013-04-05 06:43:00,58.0,-99.9,29.90,NNE,12,16.0,22.0,-999,-99.99,,,-99.99,,2013-04-05 10:43:00,
2013-04-05 07:03:00,58.0,-99.9,29.89,NNE,33,17.0,23.0,-999,-99.99,,,-99.99,,2013-04-05 11:03:00,
2013-04-05 07:13:00,57.0,-99.9,29.91,NNE,28,19.0,23.0,-999,-99.99,,,-99.99,,2013-04-05 11:13:00,
2013-04-05 07:23:00,57.0,-99.9,29.91,NE,34,19.0,23.0,-999,-99.99,,,-99.99,,2013-04-05 11:23:00,
2013-04-05 07:33:00,57.0,-99.9,29.92,NNE,26,17.0,22.0,-999,-99.99,,,-99.99,,2013-04-05 11:33:00,
2013-04-05 07:42:00,57.0,-99.9,29.91,NNE,27,19.0,24.0,-999,-99.99,,,-99.99,,2013-04-05 11:42:00,
2013-04-05 07:52:00,57.0,-99.9,29.92,NNE,33,15.0,24.0,-999,-99.99,,,-99.99,,2013-04-05 11:52:00,
2013-04-05 08:02:00,56.0,-99.9,29.95,North,353,15.0,22.0,-999,-99.99,,,-99.99,,2013-04-05 12:02:00,
2013-04-05 08:12:00,56.0,-99.9,29.94,NNE,25,13.0,18.0,-999,-99.99,,,-99.99,,2013-04-05 12:12:00,
2013-04-05 08:22:00,56.0,-99.9,29.93,NE,37,10.0,14.0,-999,-99.99,,,-99.99,,2013-04-05 12:22:00,
2013-04-05 08:32:00,57.0,-99.9,29.93,NE,54,12.0,14.0,-999,-99.99,,,-99.99,,2013-04-05 12:32:00,
2013-04-05 08:42:00,57.0,-99.9,29.94,ENE,67,11.0,13.0,-999,-99.99,,,-99.99,,2013-04-05 12:42:00,
2013-04-05 08:53:00,57.0,-99.9,29.96,NE,35,6.0,8.0,-999,-99.99,,,-99.99,,2013-04-05 12:53:00,
2013-04-05 09:02:00,58.0,-99.9,29.93,NE,45,13.0,14.0,-999,-99.99,,,-99.99,,2013-04-05 13:02:00,
2013-04-05 09:12:00,58.0,-99.9,29.93,ENE,77,9.0,12.0,-999,-99.99,,,-99.99,,2013-04-05 13:12:00,
2013-04-05 09:23:00,58.0,-99.9,29.94,East,86,8.0,11.0,-999,-99.99,,,-99.99,,2013-04-05 13:23:00,
2013-04-05 09:32:00,58.0,-99.9,29.95,NNE,18,9.0,11.0,-999,-99.99,,,-99.99,,2013-04-05 13:32:00,
2013-04-05 09:43:00,58.0,-99.9,29.95,NNE,16,7.0,9.0,-999,-99.99,,,-99.99,,2013-04-05 13:43:00,
2013-04-05 09:53:00,58.0,-99.9,29.95,NNE,15,8.0,9.0,-999,-99.99,,,-99.99,,2013-04-05 13:53:00,
2013-04-05 10:03:00,58.0,-99.9,29.96,North,7,4.0,8.0,-999,-99.99,,,-99.99,,2013-04-05 14:03:00,
2013-04-05 10:12:00,58.0,-99.9,29.96,NNE,26,7.0,11.0,-999,-99.99,,,-99.99,,2013-04-05 14:12:00,
2013-04-05 10:23:00,58.0,-99.9,29.97,NNE,14,6.0,9.0,-999,-99.99,,,-99.99,,2013-04-05 14:23:00,
2013-04-05 10:37:00,58.0,-99.9,29.97,North,7,9.0,11.0,-999,-99.99,,,-99.99,,2013-04-05 14:37:00,
2013-04-05 10:43:00,58.0,-99.9,29.97,North,8,10.0,13.0,-999,-99.99,,,-99.99,,2013-04-05 14:43:00,
2013-04-05 10:55:00,58.0,-99.9,29.96,NNE,25,13.0,14.0,-999,-99.99,,,-99.99,,2013-04-05 14:55:00,
2013-04-05 11:02:00,58.0,-99.9,29.96,NNE,23,15.0,18.0,-999,-99.99,,,-99.99,,2013-04-05 15:02:00,
2013-04-05 11:13:00,58.0,-99.9,29.96,NNE,28,18.0,19.0,-999,-99.99,,,-99.99,,2013-04-05 15:13:00,
2013-04-05 11:24:00,58.0,-99.9,29.96,NNE,19,17.0,20.0,-999,-99.99,,,-99.99,,2013-04-05 15:24:00,
2013-04-05 11:34:00,58.0,-99.9,29.97,NNE,25,17.0,21.0,-999,-99.99,,,-99.99,,2013-04-05 15:34:00,
2013-04-05 11:43:00,57.0,-99.9,29.97,North,6,14.0,19.0,-999,-99.99,,,-99.99,,2013-04-05 15:43:00,
2013-04-05 11:55:00,57.0,-99.9,29.98,NNE,17,14.0,18.0,-999,-99.99,,,-99.99,,2013-04-05 15:55:00,
2013-04-05 12:03:00,57.0,-99.9,29.98,NNE,23,14.0,18.0,-999,-99.99,,,-99.99,,2013-04-05 16:03:00,
2013-04-05 12:15:00,56.0,-99.9,29.98,NNE,26,15.0,17.0,-999,-99.99,,,-99.99,,2013-04-05 16:15:00,
2013-04-05 12:23:00,56.0,-99.9,29.99,North,3,10.0,16.0,-999,-99.99,,,-99.99,,2013-04-05 16:23:00,
2013-04-05 12:33:00,56.0,-99.9,29.99,North,4,10.0,14.0,-999,-99.99,,,-99.99,,2013-04-05 16:33:00,
2013-04-05 12:43:00,55.0,-99.9,29.99,North,5,14.0,18.0,-999,-99.99,,,-99.99,,2013-04-05 16:43:00,
2013-04-05 12:53:00,55.0,-99.9,29.99,NNE,14,15.0,18.0,-999,-99.99,,,-99.99,,2013-04-05 16:53:00,
2013-04-05 13:04:00,55.0,-99.9,29.99,North,8,14.0,18.0,-999,-99.99,,,-99.99,,2013-04-05 17:04:00,
2013-04-05 13:13:00,54.0,-99.9,29.99,North,353,13.0,16.0,-999,-99.99,,,-99.99,,2013-04-05 17:13:00,
2013-04-05 13:24:00,54.0,-99.9,29.98,North,5,13.0,16.0,-999,-99.99,,,-99.99,,2013-04-05 17:24:00,
2013-04-05 13:33:00,54.0,-99.9,29.98,North,2,12.0,17.0,-999,-99.99,,,-99.99,,2013-04-05 17:33:00,
2013-04-05 13:46:00,54.0,-99.9,29.98,North,4,11.0,13.0,-999,-99.99,,,-99.99,,2013-04-05 17:46:00,
2013-04-05 13:53:00,54.0,-99.9,29.98,North,2,14.0,17.0,-999,-99.99,,,-99.99,,2013-04-05 17:53:00,
2013-04-05 14:03:00,54.0,-99.9,29.98,North,6,12.0,16.0,-999,-99.99,,,-99.99,,2013-04-05 18:03:00,
2013-04-05 14:13:00,54.0,-99.9,29.98,North,7,11.0,16.0,-999,-99.99,,,-99.99,,2013-04-05 18:13:00,
2013-04-05 14:23:00,54.0,-99.9,29.97,North,4,10.0,15.0,-999,-99.99,,,-99.99,,2013-04-05 18:23:00,
2013-04-05 14:35:00,54.0,-99.9,29.97,North,5,8.0,14.0,-999,-99.99,,,-99.99,,2013-04-05 18:35:00,
2013-04-05 14:43:00,55.0,-99.9,29.97,North,10,10.0,16.0,-999,-99.99,,,-99.99,,2013-04-05 18:43:00,
2013-04-05 14:53:00,55.0,-99.9,29.97,NNE,13,10.0,15.0,-999,-99.99,,,-99.99,,2013-04-05 18:53:00,
2013-04-05 15:03:00,54.0,-99.9,29.97,North,9,13.0,17.0,-999,-99.99,,,-99.99,,2013-04-05 19:03:00,
2013-04-05 15:14:00,55.0,-99.9,29.97,North,8,11.0,17.0,-999,-99.99,,,-99.99,,2013-04-05 19:14:00,
2013-04-05 15:23:00,55.0,-99.9,29.97,North,5,11.0,15.0,-999,-99.99,,,-99.99,,2013-04-05 19:23:00,
2013-04-05 15:34:00,55.0,-99.9,29.96,North,7,12.0,17.0,-999,-99.99,,,-99.99,,2013-04-05 19:34:00,
2013-04-05 15:43:00,55.0,-99.9,29.96,NNE,16,13.0,17.0,-999,-99.99,,,-99.99,,2013-04-05 19:43:00,
2013-04-05 15:53:00,54.0,-99.9,29.96,North,6,11.0,15.0,-999,-99.99,,,-99.99,,2013-04-05 19:53:00,
2013-04-05 16:03:00,55.0,-99.9,29.95,NNW,348,8.0,10.0,-999,-99.99,,,-99.99,,2013-04-05 20:03:00,
2013-04-05 16:11:00,54.0,-99.9,29.95,North,9,8.0,11.0,-999,-99.99,,,-99.99,,2013-04-05 20:11:00,
2013-04-05 16:23:00,54.0,-99.9,29.96,North,358,5.0,12.0,-999,-99.99,,,-99.99,,2013-04-05 20:23:00,
2013-04-05 16:33:00,55.0,-99.9,29.95,NNE,18,7.0,10.0,-999,-99.99,,,-99.99,,2013-04-05 20:33:00,
2013-04-05 16:43:00,54.0,-99.9,29.96,North,7,8.0,11.0,-999,-99.99,,,-99.99,,2013-04-05 20:43:00,
2013-04-05 16:53:00,54.0,-99.9,29.96,North,7,7.0,9.0,-999,-99.99,,,-99.99,,2013-04-05 20:53:00,
2013-04-05 17:03:00,54.0,-99.9,29.96,North,3,8.0,10.0,-999,-99.99,,,-99.99,,2013-04-05 21:03:00,
2013-04-05 17:13:00,54.0,-99.9,29.95,North,3,8.0,9.0,-999,-99.99,,,-99.99,,2013-04-05 21:13:00,
2013-04-05 17:24:00,55.0,-99.9,29.96,North,7,8.0,12.0,-999,-99.99,,,-99.99,,2013-04-05 21:24:00,
2013-04-05 17:35:00,55.0,-99.9,29.96,North,8,9.0,11.0,-999,-99.99,,,-99.99,,2013-04-05 21:35:00,
2013-04-05 17:44:00,55.0,-99.9,29.96,North,356,7.0,10.0,-999,-99.99,,,-99.99,,2013-04-05 21:44:00,
2013-04-05 17:55:00,55.0,-99.9,29.95,NNE,24,7.0,9.0,-999,-99.99,,,-99.99,,2013-04-05 21:55:00,
2013-04-05 18:04:00,56.0,-99.9,29.96,NNE,27,9.0,13.0,-999,-99.99,,,-99.99,,2013-04-05 22:04:00,
2013-04-05 18:13:00,56.0,-99.9,29.96,North,6,10.0,14.0,-999,-99.99,,,-99.99,,2013-04-05 22:13:00,
2013-04-05 18:23:00,56.0,-99.9,29.97,North,6,9.0,12.0,-999,-99.99,,,-99.99,,2013-04-05 22:23:00,
2013-04-05 18:34:00,56.0,-99.9,29.97,NNE,13,12.0,15.0,-999,-99.99,,,-99.99,,2013-04-05 22:34:00,
2013-04-05 18:44:00,56.0,-99.9,29.98,North,10,10.0,14.0,-999,-99.99,,,-99.99,,2013-04-05 22:44:00,
2013-04-05 18:53:00,56.0,-99.9,29.98,North,5,10.0,13.0,-999,-99.99,,,-99.99,,2013-04-05 22:53:00,
2013-04-05 19:03:00,56.0,-99.9,29.98,NNE,12,11.0,13.0,-999,-99.99,,,-99.99,,2013-04-05 23:03:00,
2013-04-05 19:13:00,56.0,-99.9,29.98,NNE,12,10.0,14.0,-999,-99.99,,,-99.99,,2013-04-05 23:13:00,
2013-04-05 19:23:00,56.0,-99.9,29.98,NNE,14,11.0,13.0,-999,-99.99,,,-99.99,,2013-04-05 23:23:00,
2013-04-05 19:33:00,56.0,-99.9,29.99,North,7,9.0,15.0,-999,-99.99,,,-99.99,,2013-04-05 23:33:00,
2013-04-05 19:43:00,56.0,-99.9,30.00,North,2,11.0,13.0,-999,-99.99,,,-99.99,,2013-04-05 23:43:00,
2013-04-05 19:53:00,56.0,-99.9,30.00,North,4,9.0,12.0,-999,-99.99,,,-99.99,,2013-04-05 23:53:00,
2013-04-05 20:03:00,56.0,-99.9,30.01,North,6,10.0,14.0,-999,-99.99,,,-99.99,,2013-04-06 00:03:00,
2013-04-05 20:13:00,56.0,-99.9,30.01,North,-999,9.0,12.0,-999,-99.99,,,-99.99,,2013-04-06 00:13:00,
2013-04-05 20:23:00,56.0,-99.9,30.01,North,358,11.0,13.0,-999,-99.99,,,-99.99,,2013-04-06 00:23:00,
2013-04-05 20:33:00,56.0,-99.9,30.01,North,10,7.0,11.0,-999,-99.99,,,-99.99,,2013-04-06 00:33:00,
2013-04-05 20:43:00,56.0,-99.9,30.01,North,6,7.0,9.0,-999,-99.99,,,-99.99,,2013-04-06 00:43:00,
2013-04-05 20:53:00,56.0,-99.9,30.01,North,5,6.0,8.0,-999,-99.99,,,-99.99,,2013-04-06 00:53:00,
2013-04-05 21:02:00,56.0,-99.9,30.02,North,2,7.0,8.0,-999,-99.99,,,-99.99,,2013-04-06 01:02:00,
2013-04-05 21:13:00,56.0,-99.9,30.02,North,356,8.0,10.0,-999,-99.99,,,-99.99,,2013-04-06 01:13:00,
2013-04-05 21:23:00,56.0,-99.9,30.03,North,357,8.0,11.0,-999,-99.99,,,-99.99,,2013-04-06 01:23:00,
2013-04-05 21:33:00,56.0,-99.9,30.04,North,351,8.0,11.0,-999,-99.99,,,-99.99,,2013-04-06 01:33:00,
2013-04-05 21:44:00,56.0,-99.9,30.04,North,349,6.0,8.0,-999,-99.99,,,-99.99,,2013-04-06 01:44:00,
2013-04-05 21:53:00,56.0,-99.9,30.04,North,355,7.0,9.0,-999,-99.99,,,-99.99,,2013-04-06 01:53:00,
2013-04-05 22:03:00,56.0,-99.9,30.05,North,352,6.0,10.0,-999,-99.99,,,-99.99,,2013-04-06 02:03:00,
2013-04-05 22:13:00,56.0,-99.9,30.06,North,349,7.0,11.0,-999,-99.99,,,-99.99,,2013-04-06 02:13:00,
2013-04-05 22:23:00,57.0,-99.9,30.06,North,360,6.0,9.0,-999,-99.99,,,-99.99,,2013-04-06 02:23:00,
2013-04-05 22:33:00,57.0,-99.9,30.06,North,352,7.0,10.0,-999,-99.99,,,-99.99,,2013-04-06 02:33:00,
2013-04-05 22:43:00,57.0,-99.9,30.07,North,1,5.0,6.0,-999,-99.99,,,-99.99,,2013-04-06 02:43:00,
2013-04-05 22:53:00,57.0,-99.9,30.07,North,358,6.0,7.0,-999,-99.99,,,-99.99,,2013-04-06 02:53:00,
2013-04-05 23:03:00,57.0,-99.9,30.08,North,355,7.0,10.0,-999,-99.99,,,-99.99,,2013-04-06 03:03:00,
2013-04-05 23:13:00,57.0,-99.9,30.08,North,357,6.0,9.0,-999,-99.99,,,-99.99,,2013-04-06 03:13:00,
2013-04-05 23:23:00,57.0,-99.9,30.08,North,2,7.0,9.0,-999,-99.99,,,-99.99,,2013-04-06 03:23:00,
2013-04-05 23:34:00,57.0,-99.9,30.09,North,359,7.0,9.0,-999,-99.99,,,-99.99,,2013-04-06 03:34:00,
2013-04-05 23:44:00,57.0,-99.9,30.09,NNW,348,6.0,11.0,-999,-99.99,,,-99.99,,2013-04-06 03:44:00,
2013-04-05 23:55:00,57.0,-99.9,30.08,NNW,340,4.0,7.0,-999,-99.99,,,-99.99,,2013-04-06 03:55:00,